Date String (YYYY-MM-DD hh:mm:ss) UTC,Instrument flags,Ambient pressure (hPa),Sample flow (lpm),Bypass flow (lpm),Sample temperature (°C),Ambient temperature (°C),ASC tube jacket temperature (°C),LED temperature (°C),Box temperature (°C),Sample RH (%),Span deviation,Mass concentration (μg/m³),Mass concentration (μg/m³),Mass concentration (μg/m³)
DateTimeUTC,F1_M11,P_M11,Q1_M11,Q2_M11,T1_M11,T2_M11,T3_M11,T4_M11,T5_M11,U1_M11,ZSPAN_M11,X0_M11,X2_M11,X1_M11
2021-09-17 01:00:00,,0822.1,5.01,0.00,29.3,27.8,00.0,38.1,31.0,10.5,0001.9,0012.20,0006.76,0006.28
2021-09-17 01:01:00,,0822.1,4.99,0.00,29.1,26.0,00.0,38.1,30.5,10.6,0002.2,0012.20,0006.78,0006.30
2021-09-17 01:02:00,,0822.1,5.00,0.00,29.0,25.6,00.0,38.1,30.4,10.7,0002.3,0012.15,0006.78,0006.32
2021-09-17 01:03:00,,0822.0,5.01,0.00,29.0,26.0,00.0,38.1,30.5,10.7,0002.4,0011.89,0006.83,0006.33
2021-09-17 01:04:00,,0822.1,4.99,0.00,28.9,26.4,00.0,38.1,30.6,10.7,0002.7,0012.51,0006.87,0006.34
2021-09-17 01:05:00,,0822.0,4.99,0.00,29.0,26.9,00.0,38.0,30.7,10.6,0002.5,0012.50,0006.88,0006.34
2021-09-17 01:06:00,,0822.1,5.01,0.00,29.0,27.3,00.0,38.0,30.8,10.6,0002.5,0012.03,0006.86,0006.33
2021-09-17 01:07:00,,0822.1,4.99,0.00,29.1,27.6,00.0,38.0,30.9,10.6,0002.6,0011.88,0006.89,0006.35
2021-09-17 01:08:00,,0822.1,5.01,0.00,29.1,27.9,00.0,38.1,31.0,10.7,0002.5,0011.93,0006.90,0006.37
2021-09-17 01:09:00,,0822.1,5.01,0.00,29.2,28.1,00.0,38.1,31.1,10.7,0002.5,0011.99,0006.90,0006.38
2021-09-17 01:10:00,,0822.1,4.99,0.00,29.2,28.3,00.0,38.1,31.1,10.7,0002.4,0011.94,0006.89,0006.37
2021-09-17 01:11:00,,0822.2,5.01,0.00,29.3,28.5,00.0,38.1,31.2,10.7,0002.1,0011.93,0006.91,0006.37
2021-09-17 01:12:00,,0822.2,4.99,0.00,29.3,28.2,00.0,38.2,31.1,10.6,0001.9,0011.99,0006.93,0006.36
2021-09-17 01:13:00,,0822.2,5.01,0.00,29.2,26.3,00.0,38.2,30.7,10.6,0002.0,0012.04,0006.96,0006.37
2021-09-17 01:14:00,,0822.1,5.00,0.00,29.0,25.4,00.0,38.2,30.4,10.6,0001.9,0012.27,0006.96,0006.40
2021-09-17 01:15:00,,0822.2,5.00,0.00,29.0,25.7,00.0,38.1,30.4,10.6,0001.7,0011.37,0006.94,0006.42
2021-09-17 01:16:00,,0822.2,5.00,0.00,28.9,26.2,00.0,38.1,30.5,10.6,0001.6,0011.50,0006.96,0006.44
2021-09-17 01:17:00,,0822.2,5.00,0.00,28.9,26.7,00.0,38.1,30.6,10.7,0001.8,0011.78,0007.01,0006.48
2021-09-17 01:18:00,,0822.2,5.00,0.00,29.0,27.1,00.0,38.1,30.8,10.7,0001.8,0011.95,0007.05,0006.50
2021-09-17 01:19:00,,0822.2,5.01,0.00,29.0,27.5,00.0,38.1,30.9,10.7,0001.8,0012.76,0007.07,0006.50
2021-09-17 01:20:00,,0822.3,4.99,0.00,29.1,27.8,00.0,38.1,30.9,10.7,0001.7,0012.85,0007.06,0006.51
2021-09-17 01:21:00,,0822.2,5.00,0.00,29.1,28.0,00.0,38.1,31.0,10.7,0001.6,0013.10,0007.09,0006.53
2021-09-17 01:22:00,,0822.2,5.01,0.00,29.2,28.2,00.0,38.1,31.1,10.6,0001.8,0013.59,0007.11,0006.56
2021-09-17 01:23:00,,0822.3,5.00,0.00,29.2,28.4,00.0,38.1,31.2,10.6,0001.8,0013.70,0007.14,0006.59
2021-09-17 01:24:00,,0822.3,5.01,0.00,29.3,28.6,00.0,38.2,31.2,10.7,0002.0,0013.71,0007.16,0006.61
2021-09-17 01:25:00,,0822.3,4.99,0.00,29.4,28.6,00.0,38.2,31.3,10.6,0001.9,0013.60,0007.16,0006.61
2021-09-17 01:26:00,,0822.3,5.00,0.00,29.3,27.0,00.0,38.2,30.8,10.6,0001.7,0014.34,0007.20,0006.63
2021-09-17 01:27:00,,0822.3,4.99,0.00,29.1,25.5,00.0,38.2,30.4,10.7,0001.7,0014.23,0007.23,0006.65
2021-09-17 01:28:00,,0822.4,5.00,0.00,29.0,25.7,00.0,38.2,30.4,10.7,0001.5,0013.74,0007.25,0006.66
2021-09-17 01:29:00,,0822.3,5.01,0.00,29.0,26.1,00.0,38.1,30.5,10.8,0001.2,0013.79,0007.26,0006.67
2021-09-17 01:30:00,,0822.4,5.00,0.00,29.0,26.6,00.0,38.1,30.6,10.8,0001.2,0013.22,0007.25,0006.67
2021-09-17 01:31:00,,0822.4,4.99,0.00,29.0,27.0,00.0,38.1,30.8,10.8,0001.4,0013.33,0007.28,0006.67
2021-09-17 01:32:00,,0822.4,5.01,0.00,29.0,27.4,00.0,38.1,30.8,10.8,0001.7,0013.11,0007.28,0006.67
2021-09-17 01:33:00,,0822.4,5.00,0.00,29.1,27.7,00.0,38.1,30.9,10.7,0002.1,0012.72,0007.28,0006.68
2021-09-17 01:34:00,,0822.4,5.00,0.00,29.1,28.0,00.0,38.1,31.0,10.7,0002.1,0012.58,0007.26,0006.69
2021-09-17 01:35:00,,0822.5,5.00,0.00,29.2,28.2,00.0,38.1,31.1,10.7,0001.7,0012.62,0007.25,0006.67
2021-09-17 01:36:00,,0822.4,5.00,0.00,29.3,28.4,00.0,38.2,31.2,10.6,0001.4,0012.37,0007.24,0006.65
2021-09-17 01:37:00,,0822.4,5.01,0.00,29.3,28.5,00.0,38.2,31.2,10.6,0001.3,0011.85,0007.24,0006.65
2021-09-17 01:38:00,,0822.4,5.00,0.00,29.4,28.6,00.0,38.2,31.3,10.6,0001.2,0012.45,0007.22,0006.63
2021-09-17 01:39:00,,0822.4,5.00,0.00,29.4,27.7,00.0,38.2,31.0,10.6,0001.0,0012.42,0007.23,0006.61
2021-09-17 01:40:00,,0822.4,5.00,0.00,29.2,25.7,00.0,38.2,30.5,10.8,0000.9,0012.27,0007.21,0006.59
2021-09-17 01:41:00,,0822.5,4.99,0.00,29.1,25.5,00.0,38.2,30.4,10.8,0001.0,0012.12,0007.22,0006.56
2021-09-17 01:42:00,,0822.4,5.01,0.00,29.0,25.9,00.0,38.2,30.5,10.8,0000.7,0012.32,0007.24,0006.56
2021-09-17 01:43:00,,0822.5,5.00,0.00,29.0,26.4,00.0,38.1,30.6,10.8,0000.5,0012.89,0007.22,0006.54
2021-09-17 01:44:00,,0822.5,4.98,0.00,29.0,26.9,00.0,38.1,30.7,10.8,0000.4,0013.20,0007.22,0006.51
2021-09-17 01:45:00,,0822.5,5.00,0.00,29.0,27.3,00.0,38.1,30.8,10.8,0000.4,0013.21,0007.22,0006.49
2021-09-17 01:46:00,,0822.6,5.00,0.00,29.1,27.6,00.0,38.1,30.9,10.8,0000.7,0013.26,0007.22,0006.50
2021-09-17 01:47:00,,0822.6,5.00,0.00,29.1,27.9,00.0,38.1,31.0,10.8,0000.9,0013.74,0007.25,0006.51
2021-09-17 01:48:00,,0822.6,4.99,0.00,29.2,28.1,00.0,38.2,31.1,10.7,0001.0,0014.17,0007.29,0006.50
2021-09-17 01:49:00,,0822.7,5.02,0.00,29.2,28.3,00.0,38.2,31.1,10.7,0001.2,0013.62,0007.24,0006.50
2021-09-17 01:50:00,,0822.6,4.99,0.00,29.3,28.4,00.0,38.2,31.2,10.7,0001.4,0014.27,0007.18,0006.49
2021-09-17 01:51:00,,0822.6,5.00,0.00,29.4,28.6,00.0,38.2,31.3,10.6,0001.8,0014.27,0007.18,0006.50
2021-09-17 01:52:00,,0822.7,5.00,0.00,29.4,28.7,00.0,38.3,31.3,10.6,0001.8,0014.26,0007.19,0006.51
2021-09-17 01:53:00,,0822.7,5.00,0.00,29.4,27.4,00.0,38.3,31.0,10.6,0002.0,0014.10,0007.16,0006.52
2021-09-17 01:54:00,,0822.6,5.00,0.00,29.2,25.6,00.0,38.3,30.4,10.7,0002.2,0014.37,0007.20,0006.53
2021-09-17 01:55:00,,0822.7,5.00,0.00,29.1,25.6,00.0,38.2,30.4,10.8,0002.1,0014.09,0007.19,0006.53
2021-09-17 01:56:00,,0822.7,5.01,0.00,29.0,26.0,00.0,38.2,30.5,10.9,0001.8,0014.07,0007.18,0006.53
2021-09-17 01:57:00,,0822.7,5.00,0.00,29.0,26.5,00.0,38.2,30.6,10.9,0001.3,0014.00,0007.17,0006.52
2021-09-17 01:58:00,,0822.7,4.99,0.00,29.0,26.9,00.0,38.2,30.7,10.8,0001.0,0013.95,0007.17,0006.52
2021-09-17 01:59:00,,0822.8,5.02,0.00,29.1,27.3,00.0,38.2,30.9,10.9,0001.2,0013.16,0007.13,0006.53
